Weather History for Kansas City International, MO

Change the Weather History Date:

Monday, January 21, 2013

  Actual Average Record
Temperature  
Mean Temperature 16 °F 29 °F  
Max Temperature 20 °F 38 °F 71 °F (1957)
Min Temperature 12 °F 19 °F -6 °F (1935)
Degree Days  
Heating Degree Days 49 36  
Month to date heating degree days 678 756  
Since 1 July heating degree days 2516 2798  
Cooling Degree Days 0 0  
Month to date cooling degree days 0 0  
Year to date cooling degree days 0 0  
Moisture  
Dew Point 4 °F    
Average Humidity 58    
Maximum Humidity 80    
Minimum Humidity 35    
Precipitation  
Precipitation T in 0.03 in 1.02 in (1958)
Month to date precipitation 0.25 0.67  
Year to date precipitation 0.25 0.67  
Snow  
Snow T in 0.10 in 10.50 in (1958)
Month to date snowfall T 2.9  
Since 1 July snowfall 3.7 9.1  
Snow Depth 0.00 in    
Sea Level Pressure  
Sea Level Pressure 30.43 in    
Wind  
Wind Speed 7 mph (NNW)    
Max Wind Speed 15 mph    
Max Gust Speed 21 mph    
Visibility 10 miles    
Events Snow    
T = Trace of Precipitation, MM = Missing Value Source: NWS Daily Summary

Daily Weather History Graph

Daily Weather History Graph

Search for Another Location

Airport:

Trip Planner

Search our weather history database for the weather conditions in past years. The results will help you decide how hot, cold, wet, or windy it might be!

Date:

Astronomy

Jan. 21, 2013 Rise Set
Actual Time 7:34 AM CST 5:27 PM CST
Civil Twilight 7:05 AM CST 5:56 PM CST
Nautical Twilight 6:32 AM CST 6:28 PM CST
Astronomical Twilight 6:00 AM CST 7:00 PM CST
Moon 1:07 PM CST (1/21) 3:02 AM CST (1/21)
Length of Visible Light 10h 51m
Length of Day
9h 53m
Waxing Gibbous, 75% of the Moon is Illuminated
Jan 21
Waxing Gibbous
Jan 26
Full
Feb 3
Last Quarter
Feb 10
New
Feb 17
First Quarter

Hourly Weather History & Observations

Time (CST) Temp. Windchill Dew Point Humidity Pressure Visibility Wind Dir Wind Speed Gust Speed Precip Events Conditions
12:53 AM 17.1 °F 5.8 °F 9.0 °F 71% 30.42 in 10.0 mi North 9.2 mph - N/A   Clear
1:53 AM 15.1 °F 9.4 °F 8.1 °F 74% 30.43 in 10.0 mi NNE 3.5 mph - N/A   Clear
2:53 AM 15.1 °F 7.7 °F 8.1 °F 74% 30.44 in 10.0 mi WSW 4.6 mph - 0.01 in   Clear
3:53 AM 14.0 °F 8.2 °F 8.1 °F 77% 30.43 in 10.0 mi West 3.5 mph - N/A   Clear
4:53 AM 14.0 °F 8.2 °F 8.1 °F 77% 30.41 in 10.0 mi WSW 3.5 mph - N/A   Partly Cloudy
5:53 AM 12.0 °F 2.7 °F 7.0 °F 80% 30.43 in 10.0 mi NNW 5.8 mph - N/A   Partly Cloudy
6:53 AM 12.0 °F 2.7 °F 7.0 °F 80% 30.44 in 10.0 mi NNW 5.8 mph - N/A   Partly Cloudy
7:53 AM 14.0 °F 8.2 °F 9.0 °F 80% 30.44 in 10.0 mi West 3.5 mph - N/A   Mostly Cloudy
8:53 AM 16.0 °F 6.3 °F 10.0 °F 77% 30.45 in 10.0 mi NNW 6.9 mph - N/A   Overcast
9:53 AM 17.1 °F 5.8 °F 9.0 °F 71% 30.47 in 9.0 mi NNW 9.2 mph - 0.00 in Snow Light Snow
10:53 AM 19.0 °F 6.1 °F 6.1 °F 57% 30.48 in 10.0 mi North 12.7 mph - 0.00 in   Overcast
11:53 AM 19.0 °F 8.2 °F -0.9 °F 42% 30.47 in 10.0 mi North 9.2 mph - N/A   Overcast
12:53 PM 18.0 °F 7.7 °F -2.0 °F 41% 30.45 in 10.0 mi NNW 8.1 mph - N/A   Overcast
1:53 PM 19.0 °F 6.1 °F -4.0 °F 36% 30.44 in 10.0 mi NW 12.7 mph 17.3 mph N/A   Overcast
2:53 PM 18.0 °F 6.9 °F -2.0 °F 41% 30.44 in 10.0 mi NNW 9.2 mph - N/A   Overcast
3:53 PM 18.0 °F 7.7 °F -0.9 °F 44% 30.42 in 9.0 mi WNW 8.1 mph - 0.00 in Snow Light Snow
4:16 PM 17.6 °F 5.7 °F -0.4 °F 45% 30.37 in 9.0 mi WNW 10.4 mph - 0.00 in   Overcast
4:53 PM 17.1 °F 6.6 °F -0.0 °F 47% 30.42 in 10.0 mi WNW 8.1 mph - 0.00 in   Overcast
5:53 PM 16.0 °F 8.8 °F 1.0 °F 52% 30.42 in 10.0 mi NNW 4.6 mph - N/A   Overcast
6:53 PM 16.0 °F 7.4 °F 1.0 °F 52% 30.42 in 10.0 mi NW 5.8 mph - N/A   Overcast
7:53 PM 16.0 °F 5.3 °F 1.9 °F 54% 30.42 in 10.0 mi North 8.1 mph - N/A   Overcast
8:53 PM 16.0 °F 7.4 °F 1.9 °F 54% 30.42 in 10.0 mi North 5.8 mph - N/A   Overcast
9:53 PM 16.0 °F 8.8 °F 3.0 °F 57% 30.43 in 10.0 mi North 4.6 mph - N/A   Overcast
10:53 PM 16.0 °F 8.8 °F 3.0 °F 57% 30.43 in 10.0 mi North 4.6 mph - N/A   Overcast
11:53 PM 15.1 °F 6.4 °F 3.0 °F 59% 30.42 in 10.0 mi NE 5.8 mph - N/A   Overcast